This is the latest recevied weather packets stored in our database for station/object SP9MUF-14. If no packets are shown the sender has not sent any weather packets the latest 10 day(s).
| Time | Temp. | Humidity | Pressure | Rain* | Wind** | Luminosity | Snow |
|---|---|---|---|---|---|---|---|
| 1788184878 | 25.56° C | 51% | 1013 hPa | 0 mm | - | 79 W/m² | - |
| 1788184274 | 26.67° C | 43% | 1012.7 hPa | 0 mm | - | 45 W/m² | - |
| 1788183972 | 26.67° C | 43% | 1012.8 hPa | 0 mm | - | 68 W/m² | - |
| 1788183670 | 27.78° C | 41% | 1012.7 hPa | 0 mm | - | 100 W/m² | - |
| 1788183368 | 27.78° C | 42% | 1009.9 hPa | 0 mm | - | 130 W/m² | - |
| 1788183065 | 27.78° C | 44% | 1012.4 hPa | 0 mm | - | 184 W/m² | - |
| 1788182763 | 27.78° C | 47% | 1012.5 hPa | 0 mm | - | 117 W/m² | - |
| 1788182159 | 27.78° C | 46% | 1012.1 hPa | 0 mm | - | 102 W/m² | - |
| 1788181857 | 27.78° C | 45% | 1012 hPa | 0 mm | - | 140 W/m² | - |
| 1788181554 | 28.89° C | 44% | 1012.1 hPa | 0 mm | - | 149 W/m² | - |
| 1788181252 | 28.89° C | 43% | 1012.1 hPa | 0 mm | - | 159 W/m² | - |
| 1788180648 | 28.89° C | 43% | 1012.2 hPa | 0 mm | - | 149 W/m² | - |
| 1788180346 | 28.89° C | 44% | 1012.2 hPa | 0 mm | - | 160 W/m² | - |
| 1788180044 | 28.89° C | 42% | 1009.5 hPa | 0 mm | - | 168 W/m² | - |
| 1788179742 | 28.89° C | 42% | 1012.2 hPa | 0 mm | - | 212 W/m² | - |
| 1788179440 | 28.89° C | 41% | 1012.2 hPa | 0 mm | - | 188 W/m² | - |
| 1788179138 | 28.89° C | 42% | 1012.3 hPa | 0 mm | - | 260 W/m² | - |
| 1788178835 | 28.89° C | 42% | 1012.3 hPa | 0 mm | - | 231 W/m² | - |
| 1788177929 | 28.89° C | 42% | 1012.4 hPa | 0 mm | - | 211 W/m² | - |
| 1788177325 | 30° C | 39% | 1012.4 hPa | 0 mm | - | 212 W/m² | - |
| 1788177023 | 30° C | 39% | 1012.5 hPa | 0 mm | - | 544 W/m² | - |
| 1788176720 | 28.89° C | 40% | 1012.5 hPa | 0 mm | - | 732 W/m² | - |
| 1788176116 | 28.89° C | 43% | 1012.5 hPa | 0 mm | - | 242 W/m² | - |
| 1788175814 | 30° C | 41% | 1012.6 hPa | 0 mm | - | 333 W/m² | - |
| 1788175512 | 30° C | 42% | 1012.4 hPa | 0 mm | - | 473 W/m² | - |
* Rain latest hour (hover to see other rain measurements)
** Current wind speed in m/s (hover to see current wind gust speed)